User: anonymous   Login
Location: Key Biscayne
(25.6930°N, 80.1630°W)
Time: 00:30:56
(UTC-04:00)
Language:

CZ-2D R/B - Orbit

View from above orbital plane
View from above orbital plane
View from above satellite
View from above satellite

Ground track
Ground track

The orbit data is extracted from the following two-line orbital elements,

1 28738U 05024B   14295.73145292  .00005806  00000-0  38755-3 0  8868
2 28738 097.6177 329.8545 0014732 087.2581 273.0333 15.07326590509677
Epoch (UTC): 22 October 2014 17:33:17
Eccentricity: 0.0014732
inclination: 97.6177°
perigee height: 534 km
apogee height: 554 km
right ascension of ascending node: 329.8545°
argument of perigee: 87.2581°
revolutions per day: 15.07326590
mean anomaly at epoch: 273.0333°
orbit number at epoch: 50967

The dashed part of the orbit path shows where the satellite is in the earth's shadow,  

DLR